| time (UTC) | temp F | wind direction | speed knots | gust knots | rain 1hr in | rain 24hr in | rain mn in | humidity % | barometer mb |
| 20260504214741 | 76 | 113 | 0.0 | 0.0 | 0.00 | 0.00 | 0.00 | 52 | 1013.6 |
| 20260504214238 | 76 | 140 | 0.0 | 0.0 | 0.00 | 0.00 | 0.00 | 50 | 1013.3 |
| 20260504213735 | 77 | 70 | 1.7 | 1.7 | 0.00 | 0.00 | 0.00 | 49 | 1013.4 |
| 20260504213231 | 77 | 99 | 0.9 | 1.7 | 0.00 | 0.00 | 0.00 | 48 | 1013.5 |
| 20260504212729 | 76 | 130 | 1.7 | 3.5 | 0.00 | 0.00 | 0.00 | 48 | 1013.5 |
| 20260504212225 | 77 | 137 | 2.6 | 2.6 | 0.00 | 0.00 | 0.00 | 48 | 1013.5 |
| 20260504211723 | 77 | 69 | 0.9 | 2.6 | 0.00 | 0.00 | 0.00 | 45 | 1013.8 |
| 20260504211219 | 77 | 69 | 0.9 | 2.6 | 0.00 | 0.00 | 0.00 | 45 | 1013.8 |
| 20260504210716 | 77 | 178 | 0.9 | 1.7 | 0.00 | 0.00 | 0.00 | 47 | 1013.8 |
| 20260504210213 | 77 | 114 | 0.9 | 1.7 | 0.00 | 0.00 | 0.00 | 48 | 1014.0 |
| 20260504205710 | 77 | 114 | 0.9 | 1.7 | 0.00 | 0.00 | 0.00 | 48 | 1014.0 |
| 20260504205208 | 77 | 112 | 0.0 | 0.9 | 0.00 | 0.00 | 0.00 | 47 | 1013.9 |
| 20260504204706 | 78 | 107 | 0.0 | 0.0 | 0.00 | 0.00 | 0.00 | 45 | 1013.9 |
| 20260504204204 | 78 | 121 | 0.0 | 0.0 | 0.00 | 0.00 | 0.00 | 45 | 1014.1 |
| 20260504203703 | 78 | 118 | 0.0 | 0.9 | 0.00 | 0.00 | 0.00 | 44 | 1014.1 |
| 20260504203200 | 78 | 168 | 0.9 | 0.9 | 0.00 | 0.00 | 0.00 | 45 | 1014.2 |
| 20260504202700 | 78 | 127 | 0.9 | 0.9 | 0.00 | 0.00 | 0.00 | 44 | 1014.1 |
| 20260504202158 | 78 | 127 | 0.9 | 0.9 | 0.00 | 0.00 | 0.00 | 44 | 1014.1 |
| 20260504201654 | 77 | 140 | 1.7 | 1.7 | 0.00 | 0.00 | 0.00 | 44 | 1014.3 |
| 20260504201117 | 78 | 117 | 0.9 | 0.9 | 0.00 | 0.00 | 0.00 | 44 | 1014.6 |
| 20260504200614 | 78 | 117 | 0.9 | 0.9 | 0.00 | 0.00 | 0.00 | 44 | 1014.6 |
| 20260504200110 | 78 | 150 | 0.9 | 1.7 | 0.00 | 0.00 | 0.00 | 47 | 1014.6 |
| 20260504195606 | 79 | 82 | 1.7 | 2.6 | 0.00 | 0.00 | 0.00 | 43 | 1014.7 |
| 20260504194402 | 77 | 122 | 0.0 | 0.0 | 0.00 | 0.00 | 0.00 | 45 | 1015.1 |
| 20260504193859 | 77 | 122 | 0.0 | 0.0 | 0.00 | 0.00 | 0.00 | 45 | 1015.1 |
| 20260504193356 | 77 | 72 | 0.0 | 0.0 | 0.00 | 0.00 | 0.00 | 43 | 1015.1 |
| 20260504192855 | 77 | 151 | 0.0 | 0.9 | 0.00 | 0.00 | 0.00 | 49 | 1015.1 |
| 20260504192352 | 78 | 140 | 1.7 | 1.7 | 0.00 | 0.00 | 0.00 | 47 | 1015.5 |
| 20260504191850 | 78 | 83 | 1.7 | 2.6 | 0.00 | 0.00 | 0.00 | 46 | 1015.5 |
| 20260504191348 | 78 | 124 | 2.6 | 2.6 | 0.00 | 0.00 | 0.00 | 44 | 1015.2 |
| 20260504190843 | 77 | 107 | 2.6 | 3.5 | 0.00 | 0.00 | 0.00 | 46 | 1015.4 |
| 20260504190339 | 77 | 44 | 1.7 | 1.7 | 0.00 | 0.00 | 0.00 | 46 | 1015.4 |
| 20260504185836 | 77 | 32 | 1.7 | 2.6 | 0.00 | 0.00 | 0.00 | 48 | 1015.3 |
| 20260504185333 | 77 | 96 | 3.5 | 6.1 | 0.00 | 0.00 | 0.00 | 44 | 1015.5 |
| 20260504184829 | 77 | 141 | 0.9 | 1.7 | 0.00 | 0.00 | 0.00 | 47 | 1015.6 |
| 20260504184325 | 77 | 86 | 1.7 | 2.6 | 0.00 | 0.00 | 0.00 | 46 | 1015.8 |
| 20260504183821 | 77 | 156 | 1.7 | 2.6 | 0.00 | 0.00 | 0.00 | 43 | 1015.8 |
| 20260504183318 | 77 | 91 | 0.9 | 0.9 | 0.00 | 0.00 | 0.00 | 47 | 1015.9 |
| 20260504182816 | 77 | 121 | 1.7 | 2.6 | 0.00 | 0.00 | 0.00 | 44 | 1016.1 |
| 20260504182313 | 77 | 113 | 0.9 | 0.9 | 0.00 | 0.00 | 0.00 | 47 | 1016.0 |
| 20260504181810 | 77 | 122 | 0.9 | 0.9 | 0.00 | 0.00 | 0.00 | 44 | 1016.1 |
| 20260504181308 | 77 | 136 | 0.9 | 1.7 | 0.00 | 0.00 | 0.00 | 47 | 1016.3 |
| 20260504180807 | 77 | 3 | 3.5 | 6.1 | 0.00 | 0.00 | 0.00 | 42 | 1016.3 |
| 20260504180305 | 77 | 251 | 1.7 | 1.7 | 0.00 | 0.00 | 0.00 | 42 | 1016.2 |
| 20260504175802 | 78 | 124 | 0.0 | 0.0 | 0.00 | 0.00 | 0.00 | 42 | 1016.2 |
| 20260504175259 | 77 | 117 | 0.0 | 0.0 | 0.00 | 0.00 | 0.00 | 43 | 1016.3 |
| 20260504174757 | 78 | 173 | 1.7 | 1.7 | 0.00 | 0.00 | 0.00 | 42 | 1016.3 |
| 20260504174255 | 78 | 29 | 1.7 | 2.6 | 0.00 | 0.00 | 0.00 | 40 | 1016.3 |
| 20260504173751 | 77 | 189 | 0.9 | 1.7 | 0.00 | 0.00 | 0.00 | 43 | 1016.3 |
| 20260504173248 | 77 | 122 | 0.9 | 1.7 | 0.00 | 0.00 | 0.00 | 44 | 1016.7 |
| 20260504172744 | 77 | 113 | 0.9 | 0.9 | 0.00 | 0.00 | 0.00 | 40 | 1016.5 |
| 20260504172241 | 77 | 124 | 0.0 | 0.0 | 0.00 | 0.00 | 0.00 | 42 | 1016.5 |
| 20260504171737 | 77 | 124 | 0.0 | 0.0 | 0.00 | 0.00 | 0.00 | 42 | 1016.5 |
| 20260504171234 | 77 | 176 | 0.9 | 1.7 | 0.00 | 0.00 | 0.00 | 44 | 1016.5 |
| 20260504170732 | 76 | 76 | 0.9 | 0.9 | 0.00 | 0.00 | 0.00 | 42 | 1016.5 |
| 20260504170228 | 76 | 162 | 0.0 | 0.9 | 0.00 | 0.00 | 0.00 | 45 | 1016.2 |
| 20260504160118 | 76 | 78 | 0.9 | 0.9 | 0.00 | 0.00 | 0.00 | 43 | 1017.1 |
| 20260504150946 | 75 | 126 | 0.9 | 0.9 | 0.00 | 0.00 | 0.00 | 52 | 1017.1 |
| 20260504150443 | 75 | 106 | 0.0 | 0.0 | 0.00 | 0.00 | 0.00 | 56 | 1017.5 |
| 20260504140910 | 70 | 103 | 0.0 | 0.0 | 0.00 | 0.00 | 0.00 | 67 | 1017.4 |
| 20260504140406 | 69 | 109 | 0.0 | 0.0 | 0.00 | 0.00 | 0.00 | 66 | 1017.2 |
| 20260504130331 | 60 | 98 | 0.0 | 0.0 | 0.00 | 0.00 | 0.00 | 88 | 1017.5 |
| 20260504120254 | 50 | 94 | 0.0 | 0.0 | 0.00 | 0.00 | 0.00 | 99 | 1017.2 |
| 20260504110218 | 49 | 106 | 0.0 | 0.0 | 0.00 | 0.00 | 0.00 | 99 | 1016.7 |
| 20260504100142 | 50 | 106 | 0.0 | 0.0 | 0.00 | 0.00 | 0.00 | 99 | 1016.7 |
| 20260504090104 | 50 | 109 | 0.0 | 0.0 | 0.00 | 0.00 | 0.00 | 99 | 1016.8 |
| 20260504081535 | 51 | 101 | 0.0 | 0.0 | 0.00 | 0.00 | 0.00 | 99 | 1016.8 |
| 20260504081030 | 51 | 101 | 0.0 | 0.0 | 0.00 | 0.00 | 0.00 | 99 | 1016.8 |
| 20260504080527 | 51 | 101 | 0.0 | 0.0 | 0.00 | 0.00 | 0.00 | 99 | 1016.9 |
| 20260504050341 | 54 | 106 | 0.0 | 0.0 | 0.00 | 0.00 | 0.00 | 97 | 1018.0 |
| 20260504045838 | 54 | 105 | 0.0 | 0.0 | 0.00 | 0.00 | 0.00 | 97 | 1018.3 |
| 20260504045338 | 54 | 106 | 0.0 | 0.0 | 0.00 | 0.00 | 0.00 | 97 | 1018.2 |
| 20260504044835 | 55 | 106 | 0.0 | 0.0 | 0.00 | 0.00 | 0.00 | 97 | 1018.2 |
| 20260504044332 | 55 | 106 | 0.0 | 0.0 | 0.00 | 0.00 | 0.00 | 97 | 1018.2 |
| 20260504043830 | 55 | 106 | 0.0 | 0.0 | 0.00 | 0.00 | 0.00 | 97 | 1018.2 |
| 20260504043326 | 55 | 106 | 0.0 | 0.0 | 0.00 | 0.00 | 0.00 | 97 | 1018.3 |
| 20260504042824 | 55 | 106 | 0.0 | 0.0 | 0.00 | 0.00 | 0.00 | 97 | 1018.3 |
| 20260504042320 | 55 | 106 | 0.0 | 0.0 | 0.00 | 0.00 | 0.00 | 96 | 1018.4 |
| 20260504041816 | 55 | 106 | 0.0 | 0.0 | 0.00 | 0.00 | 0.00 | 96 | 1018.2 |
| 20260504041312 | 55 | 106 | 0.0 | 0.0 | 0.00 | 0.00 | 0.00 | 96 | 1018.3 |
| 20260504040809 | 55 | 106 | 0.0 | 0.0 | 0.00 | 0.00 | 0.00 | 96 | 1018.5 |
| 20260504040307 | 55 | 106 | 0.0 | 0.0 | 0.00 | 0.00 | 0.00 | 96 | 1018.4 |
| 20260504035802 | 56 | 106 | 0.0 | 0.0 | 0.00 | 0.00 | 0.00 | 96 | 1018.3 |
| 20260504035300 | 56 | 106 | 0.0 | 0.0 | 0.00 | 0.00 | 0.00 | 95 | 1018.6 |
| 20260504034757 | 56 | 106 | 0.0 | 0.0 | 0.00 | 0.00 | 0.00 | 95 | 1018.4 |
| 20260504034254 | 56 | 106 | 0.0 | 0.0 | 0.00 | 0.00 | 0.00 | 95 | 1018.3 |
| 20260504033751 | 56 | 106 | 0.0 | 0.0 | 0.00 | 0.00 | 0.00 | 94 | 1018.3 |
| 20260504033249 | 56 | 106 | 0.0 | 0.0 | 0.00 | 0.00 | 0.00 | 94 | 1018.3 |
| 20260504032745 | 56 | 106 | 0.0 | 0.0 | 0.00 | 0.00 | 0.00 | 94 | 1018.3 |
| 20260504032243 | 56 | 100 | 0.0 | 0.0 | 0.00 | 0.00 | 0.00 | 93 | 1018.4 |
| 20260504031739 | 56 | 95 | 0.0 | 0.0 | 0.00 | 0.00 | 0.00 | 93 | 1018.2 |
| 20260504031237 | 57 | 111 | 0.0 | 0.0 | 0.00 | 0.00 | 0.00 | 93 | 1018.3 |
| 20260504030732 | 57 | 111 | 0.0 | 0.0 | 0.00 | 0.00 | 0.00 | 92 | 1018.3 |
| 20260504030230 | 57 | 111 | 0.0 | 0.0 | 0.00 | 0.00 | 0.00 | 91 | 1018.4 |
| 20260504025726 | 57 | 114 | 0.0 | 0.0 | 0.00 | 0.00 | 0.00 | 92 | 1018.0 |
| 20260504025223 | 57 | 115 | 0.0 | 0.0 | 0.00 | 0.00 | 0.00 | 91 | 1018.2 |
| 20260504024720 | 58 | 116 | 0.0 | 0.0 | 0.00 | 0.00 | 0.00 | 91 | 1017.9 |
| 20260504024217 | 58 | 118 | 0.0 | 0.0 | 0.00 | 0.00 | 0.00 | 90 | 1018.0 |
| 20260504023714 | 58 | 121 | 0.0 | 0.0 | 0.00 | 0.00 | 0.00 | 90 | 1018.0 |
| 20260504023209 | 58 | 108 | 0.0 | 0.0 | 0.00 | 0.00 | 0.00 | 90 | 1017.9 |
| 20260504022706 | 58 | 115 | 0.0 | 0.0 | 0.00 | 0.00 | 0.00 | 90 | 1017.9 |
| 20260504022202 | 59 | 115 | 0.0 | 0.0 | 0.00 | 0.00 | 0.00 | 88 | 1017.9 |
| 20260504021700 | 59 | 115 | 0.0 | 0.0 | 0.00 | 0.00 | 0.00 | 88 | 1017.8 |
| 20260504021156 | 59 | 115 | 0.0 | 0.0 | 0.00 | 0.00 | 0.00 | 87 | 1017.8 |
| 20260504020653 | 60 | 115 | 0.0 | 0.0 | 0.00 | 0.00 | 0.00 | 86 | 1017.7 |
| 20260504020149 | 59 | 115 | 0.0 | 0.0 | 0.00 | 0.00 | 0.00 | 85 | 1017.6 |
| 20260504015646 | 59 | 115 | 0.0 | 0.0 | 0.00 | 0.00 | 0.00 | 83 | 1017.7 |
| 20260504015142 | 60 | 115 | 0.0 | 0.0 | 0.00 | 0.00 | 0.00 | 84 | 1017.4 |
| 20260504014638 | 60 | 115 | 0.0 | 0.0 | 0.00 | 0.00 | 0.00 | 83 | 1017.2 |
| 20260504014136 | 60 | 115 | 0.0 | 0.0 | 0.00 | 0.00 | 0.00 | 82 | 1017.2 |
| 20260504013633 | 61 | 115 | 0.0 | 0.0 | 0.00 | 0.00 | 0.00 | 80 | 1017.3 |
| 20260504013130 | 61 | 115 | 0.0 | 0.0 | 0.00 | 0.00 | 0.00 | 80 | 1017.1 |
| 20260504012627 | 61 | 116 | 0.0 | 0.0 | 0.00 | 0.00 | 0.00 | 76 | 1017.1 |
| 20260504012125 | 62 | 116 | 0.0 | 0.0 | 0.00 | 0.00 | 0.00 | 77 | 1017.2 |
| 20260504011622 | 62 | 116 | 0.0 | 0.0 | 0.00 | 0.00 | 0.00 | 75 | 1017.1 |
| 20260504011118 | 63 | 116 | 0.0 | 0.0 | 0.00 | 0.00 | 0.00 | 73 | 1016.9 |
| 20260504010614 | 63 | 116 | 0.0 | 0.0 | 0.00 | 0.00 | 0.00 | 71 | 1017.1 |
| 20260504010110 | 64 | 116 | 0.0 | 0.0 | 0.00 | 0.00 | 0.00 | 70 | 1017.0 |
| 20260504005607 | 64 | 116 | 0.0 | 0.0 | 0.00 | 0.00 | 0.00 | 70 | 1017.0 |
| 20260504005104 | 65 | 116 | 0.0 | 0.0 | 0.00 | 0.00 | 0.00 | 69 | 1016.8 |
| 20260504004602 | 66 | 116 | 0.0 | 0.0 | 0.00 | 0.00 | 0.00 | 66 | 1017.0 |
| 20260504004059 | 66 | 116 | 0.0 | 0.0 | 0.00 | 0.00 | 0.00 | 68 | 1016.9 |
| 20260504002803 | 69 | 117 | 0.0 | 0.0 | 0.00 | 0.00 | 0.00 | 58 | 1016.9 |
| 20260504002300 | 69 | 117 | 0.0 | 0.0 | 0.00 | 0.00 | 0.00 | 58 | 1016.9 |
| 20260504001758 | 69 | 117 | 0.0 | 0.0 | 0.00 | 0.00 | 0.00 | 56 | 1016.9 |
| 20260504001254 | 70 | 117 | 0.0 | 0.0 | 0.00 | 0.00 | 0.00 | 55 | 1016.9 |
| 20260504000751 | 71 | 118 | 0.0 | 0.0 | 0.00 | 0.00 | 0.00 | 61 | 1016.8 |
| 20260504000248 | 71 | 118 | 0.0 | 0.0 | 0.00 | 0.00 | 0.00 | 53 | 1016.6 |
| 20260503235746 | 72 | 118 | 0.0 | 0.0 | 0.00 | 0.00 | 0.00 | 56 | 1016.9 |
| 20260503235243 | 72 | 114 | 0.0 | 0.0 | 0.00 | 0.00 | 0.00 | 52 | 1016.9 |
| 20260503234741 | 73 | 114 | 0.0 | 0.0 | 0.00 | 0.00 | 0.00 | 52 | 1016.7 |
| 20260503234239 | 73 | 114 | 0.0 | 0.0 | 0.00 | 0.00 | 0.00 | 47 | 1016.8 |
| 20260503233736 | 73 | 113 | 0.0 | 0.0 | 0.00 | 0.00 | 0.00 | 46 | 1016.8 |
| 20260503233231 | 75 | 110 | 0.0 | 0.0 | 0.00 | 0.00 | 0.00 | 43 | 1017.0 |
| 20260503232728 | 75 | 121 | 0.0 | 0.0 | 0.00 | 0.00 | 0.00 | 40 | 1017.0 |
| 20260503232226 | 75 | 125 | 0.0 | 0.0 | 0.00 | 0.00 | 0.00 | 42 | 1017.1 |
| 20260503231724 | 75 | 117 | 0.0 | 0.9 | 0.00 | 0.00 | 0.00 | 41 | 1017.1 |
| 20260503231220 | 75 | 117 | 0.0 | 0.0 | 0.00 | 0.00 | 0.00 | 39 | 1017.1 |
| 20260503230716 | 75 | 103 | 0.0 | 0.0 | 0.00 | 0.00 | 0.00 | 43 | 1017.1 |
| 20260503230214 | 75 | 116 | 0.0 | 0.0 | 0.00 | 0.00 | 0.00 | 42 | 1016.9 |
| 20260503225712 | 75 | 330 | 2.6 | 2.6 | 0.00 | 0.00 | 0.00 | 39 | 1017.0 |
| 20260503225211 | 75 | 63 | 0.9 | 0.9 | 0.00 | 0.00 | 0.00 | 40 | 1017.1 |
| 20260503224709 | 75 | 65 | 0.9 | 0.9 | 0.00 | 0.00 | 0.00 | 43 | 1016.9 |
| 20260503224207 | 75 | 119 | 0.0 | 0.0 | 0.00 | 0.00 | 0.00 | 40 | 1017.2 |
| 20260503223704 | 75 | 109 | 0.9 | 0.9 | 0.00 | 0.00 | 0.00 | 42 | 1017.0 |
| 20260503223201 | 75 | 120 | 0.0 | 0.9 | 0.00 | 0.00 | 0.00 | 40 | 1017.0 |
| 20260503222658 | 75 | 124 | 0.0 | 0.0 | 0.00 | 0.00 | 0.00 | 43 | 1017.1 |
| 20260503222155 | 75 | 127 | 1.7 | 1.7 | 0.00 | 0.00 | 0.00 | 39 | 1017.3 |
| 20260503221654 | 75 | 121 | 0.0 | 0.0 | 0.00 | 0.00 | 0.00 | 39 | 1017.5 |
| 20260503221151 | 75 | 72 | 1.7 | 2.6 | 0.00 | 0.00 | 0.00 | 41 | 1017.2 |
| 20260503220647 | 76 | 67 | 0.9 | 0.9 | 0.00 | 0.00 | 0.00 | 37 | 1017.4 |
| 20260503220144 | 76 | 15 | 0.9 | 1.7 | 0.00 | 0.00 | 0.00 | 37 | 1017.5 |
| 20260503215641 | 75 | 76 | 0.0 | 0.9 | 0.00 | 0.00 | 0.00 | 39 | 1017.5 |
| 20260503215137 | 76 | 49 | 0.9 | 1.7 | 0.00 | 0.00 | 0.00 | 37 | 1017.4 |